Location: Franzen
(48.6167°N, 15.3833°E)
Time: 10:09:11
(UTC+00:00)

Cosmos 1655 Rocket - Pass Details

Date: 22 April 2021
Orbit: 969 x 1007 km, 82.9° (Epoch: 16 May)

Event Time Altitude Azimuth Distance (km) Brightness Sun altitude
Rises 18:51:11 0° 354° (N) 3,707 7.6 -8.4°
Reaches altitude 10° 18:53:50 10° 360° (N) 2,749 6.8 -8.8°
Maximum altitude 18:59:54 48° 74° (ENE) 1,259 4.3 -9.7°
Drops below altitude 10° 19:05:53 10° 148° (SSE) 2,712 5.8 -10.5°
Enters shadow 19:05:56 10° 148° (SSE) 2,732 5.8 -10.5°
